{"data":{"norad_id":55585,"intl_designator":"2023-020S","name":"STARLINK-5769","alt_names":[],"object_type":"PAYLOAD","status":"ACTIVE","operator":null,"country":"US","launch_date":"2023-02-12","launch_site_code":"AFETR","launch_vehicle":null,"mission":null,"orbit_class":"UNKNOWN","rcs_meters":null,"size_class":null,"mass_kg":null,"dimensions":null,"purposes":["comms"],"wikipedia_slug":null,"has_3d_model":false,"image_url":null,"decayed_at":null,"tle_current":{"epoch":"2026-05-25T02:41:56.918112Z","epoch_age_seconds":65360,"freshness":"FRESH","line1":"1 55585U 23020S   26145.11246433 -.00000019  00000+0  88674-5 0  9995","line2":"2 55585  43.0044 282.9514 0002579 284.5802  75.4763 15.27579108180723","mean_motion":15.27579108,"eccentricity":0.0002579,"inclination_deg":43.0044,"raan_deg":282.9514,"arg_perigee_deg":284.5802,"mean_anomaly_deg":75.4763,"bstar":8.8674e-6,"rev_number":18072,"period_min":94.266803758879,"perigee_km":481.28226642684,"apogee_km":484.82126759286,"semimajor_km":6861.1887670098,"source":"CELESTRAK","updated_at":"2026-05-25T13:38:17.837600Z"}}}